[[{"header":{"parameterUnit":"m.s-1","parameterCategory":1,"la1":30.2991,"la2":30.254,"lo1":-89.0895,"lo2":-89.0444,"dy":0.0017,"dx":0.0017,"nx":28,"ny":28,"refTime":"2023-11-12T03:00:00:Z","depth":0,"parameterNumber":2,"parameterNumberName":"U-component_of_WINDS"},"data":[0,0,0,0,0,0,0,0,0,0,0,0,0,0,0,0,0,0,0,0,0,0,0,0,0,0,0,0,0,0,0,0,0,0,0,0,0,0,0,0,0,0,0,0,0,0,0,0,0,0,0,0,0,0,0,0,0,0,-2.4565,-2.4565,0,-2.4566,-2.4566,-2.4566,-2.4492,-2.449,-2.4488,-2.4486,-2.4489,-2.4491,-2.4493,0,0,0,0,0,0,0,0,0,0,0,0,0,-2.45,-2.4501,-2.4565,-2.4565,-2.4565,-2.4566,-2.4566,-2.4566,-2.4492,-2.449,-2.4487,-2.4485,-2.4489,-2.4491,-2.4493,0,0,0,0,0,0,0,0,0,0,0,0,0,-2.4517,-2.4502,-2.4565,-2.4528,-2.4525,-2.4566,-2.4566,-2.4566,-2.4493,-2.449,-2.4487,-2.4484,-2.4488,-2.4491,-2.4494,-2.457,0,0,-2.4502,-2.4504,0,0,0,0,0,0,0,0,-2.4516,-2.452,-2.4533,-2.4531,-2.4527,-2.4526,-2.4544,-2.4567,-2.4493,-2.4505,-2.4486,-2.4483,-2.4504,-2.4505,-2.4512,-2.457,-2.457,-2.4503,-2.4504,-2.4506,-2.4506,0,0,0,0,0,0,0,-2.4515,-2.4519,-2.4565,-2.4534,-2.453,-2.4512,-2.4511,-2.4548,-2.4521,-2.4504,-2.4498,-2.4499,-2.4502,-2.4509,-2.4512,-2.4571,-2.4503,-2.4505,-2.4507,-2.4508,-2.4691,-2.4694,0,0,0,0,0,0,-2.4519,-2.4519,-2.4565,-2.4565,-2.4514,-2.4515,-2.4515,-2.4529,-2.452,-2.4516,-2.4502,-2.4496,-2.4506,-2.4508,-2.4511,-2.46,-2.4506,-2.4508,-2.451,-2.4688,-2.4692,-2.4695,0,0,0,0,0,0,-2.4518,-2.4524,-2.4565,-2.454,-2.4544,-2.452,-2.4537,-2.4531,-2.4538,-2.4519,-2.4514,-2.4515,-2.4504,-2.4507,-2.4556,-2.4599,-2.451,-2.4512,-2.4684,-2.4689,-2.4693,-2.4779,0,0,0,0,0,0,-2.4516,-2.4524,-2.4553,-2.4542,-2.4546,-2.4609,-2.4539,-2.4533,-2.4543,-2.4535,-2.453,-2.4526,-2.4502,-2.4552,-2.4559,-2.4602,-2.4514,-2.468,-2.4686,-2.4692,-2.4772,-2.4786,-2.4798,0,0,0,0,0,-2.4514,-2.4577,-2.4554,-2.456,-2.4581,-2.4612,-2.4614,-2.4585,-2.4547,-2.4576,-2.4563,-2.4526,-2.4593,-2.4558,-2.4564,-2.4609,-2.4677,-2.4685,-2.4691,-2.4766,-2.4783,-2.4798,0,0,0,0,0,0,-2.4595,-2.4575,-2.455,-2.4611,-2.4614,-2.4599,-2.4635,-2.4604,-2.4618,-2.461,-2.4573,-2.4572,-2.4627,-2.4622,-2.4583,-2.4682,-2.4629,-2.4638,-2.4683,-2.4699,-2.4712,-2.4712,-2.4517,0,0,0,0,0,-2.462,-2.4646,-2.4627,-2.4683,-2.4686,-2.466,-2.4673,-2.4649,-2.4651,-2.4652,-2.4643,-2.4646,-2.4668,-2.4683,-2.4702,-2.4771,-2.4769,-2.4805,-2.4818,-2.4828,-2.4837,-2.4872,-2.4888,-2.4718,-2.4718,-2.4718,0,0,-2.4671,-2.4664,-2.4683,-2.4699,-2.4698,-2.4727,-2.4662,-2.4695,-2.4715,-2.4657,-2.4702,-2.4695,-2.4697,-2.4756,-2.4781,-2.4754,-2.4883,-2.4837,-2.4846,-2.4848,-2.4881,-2.4897,-2.4912,-2.4723,-2.4722,-2.4721,0,0,-2.478,-2.4777,-2.4823,-2.4823,-2.4823,-2.4805,-2.4816,-2.4807,-2.48,-2.4844,-2.4801,-2.4825,-2.4863,-2.4866,-2.4872,-2.4981,-2.4947,-2.4988,-2.5055,-2.5091,-2.5104,-2.5116,-2.5155,-2.5169,-2.4996,-2.4996,-2.4996,0,-2.4845,-2.4885,-2.4851,-2.4886,-2.4895,-2.4842,-2.4888,-2.489,-2.4896,-2.4904,-2.4873,-2.4919,-2.4916,-2.4975,-2.5001,-2.5008,-2.502,-2.4989,-2.5105,-2.5116,-2.5127,-2.5163,-2.5178,-2.5001,-2.5001,-2.5,-2.5,0,-2.4965,-2.4994,-2.5031,-2.5037,-2.5049,-2.509,-2.5062,-2.5079,-2.5054,-2.504,-2.5086,-2.508,-2.5097,-2.5109,-2.5085,-2.5164,-2.5147,-2.5111,-2.5057,-2.5148,-2.5182,-2.5196,-2.5008,-2.5007,-2.5005,-2.5004,0,0,-2.5126,-2.5111,-2.5126,-2.5128,-2.5122,-2.5144,-2.5182,-2.5198,-2.5213,-2.5218,-2.525,-2.5283,-2.5249,-2.5256,-2.5233,-2.5264,-2.535,-2.5223,-2.5223,-2.5248,-2.5436,-2.5464,-2.5481,-2.5327,-2.533,-2.5332,-2.5436,0,-2.5232,-2.5296,-2.5265,-2.5333,-2.5359,-2.5308,-2.5342,-2.5342,-2.533,-2.535,-2.5336,-2.536,-2.5314,-2.5318,-2.5346,-2.5333,-2.5387,-2.5325,-2.5357,-2.5358,-2.5358,-2.5498,-2.5528,-2.5627,-2.5449,-2.5451,-2.5453,0,-2.5364,-2.5374,-2.5444,-2.5433,-2.5443,-2.5474,-2.5485,-2.5505,-2.5504,-2.5493,-2.5501,-2.5469,-2.5506,-2.5451,-2.5502,-2.546,-2.5471,-2.5467,-2.547,-2.5472,-2.5412,-2.5505,-2.5658,-2.5673,-2.5474,-2.5472,-2.547,0,-2.5475,-2.5506,-2.5552,-2.5555,-2.5543,-2.5566,-2.5562,-2.5559,-2.557,-2.558,-2.5586,-2.5601,-2.5609,-2.5621,-2.5595,-2.5557,-2.5649,-2.5592,-2.5641,-2.5642,-2.5663,-2.5663,-2.5821,-2.567,-2.5669,-2.5669,-2.5669,0,-2.5597,-2.5642,-2.5601,-2.563,-2.5678,-2.5642,-2.5692,-2.5683,-2.568,-2.5706,-2.5663,-2.5688,-2.5652,-2.5673,-2.5653,-2.5698,-2.5702,-2.5694,-2.5688,-2.5698,-2.5699,-2.5705,-2.5698,-2.5673,-2.5672,-2.5671,-2.5671,0,-2.5729,-2.5704,-2.575,-2.5735,-2.5732,-2.5769,-2.5756,-2.5782,-2.5766,-2.5799,-2.5805,-2.578,-2.5803,-2.5778,-2.5799,-2.5785,-2.5846,-2.583,-2.5846,-2.5842,-2.5893,-2.5888,-2.606,-2.6081,-2.5917,-2.5918,-2.592,0,-2.5809,-2.5842,-2.583,-2.5844,-2.5842,-2.5865,-2.5876,-2.5842,-2.5854,-2.5856,-2.5881,-2.5901,-2.5915,-2.5954,-2.5938,-2.5955,-2.5939,-2.5998,-2.5941,-2.595,-2.594,-2.5939,-2.5942,-2.601,-2.6012,-2.6013,-2.6015,0,-2.5953,-2.5938,-2.5955,-2.5967,-2.598,-2.5989,-2.5993,-2.6007,-2.5972,-2.5988,-2.6011,-2.6022,-2.6043,-2.6063,-2.6074,-2.6071,-2.6038,-2.6032,-2.6045,-2.6056,-2.6064,-2.606,-2.5878,-2.6029,-2.6028,-2.6027,-2.6026,-2.6025,-2.6062,-2.6088,-2.6084,-2.6103,-2.6103,-2.6109,-2.6132,-2.6118,-2.6136,-2.615,-2.6129,-2.6157,-2.6155,-2.6167,-2.6167,-2.6189,-2.6164,-2.6182,-2.6186,-2.6191,-2.6199,-2.606,-2.6191,-2.6191,-2.619,-2.619,-2.619,0,-2.6204,-2.6198,-2.6216,-2.6223,-2.6239,-2.6204,-2.6208,-2.6223,-2.6249,-2.6249,-2.6263,-2.6289,-2.6308,-2.6293,-2.6309,-2.6329,-2.6314,-2.6335,-2.6333,-2.6333,-2.6221,-2.6209,-2.6346,-2.6346,-2.6346,-2.6346,-2.6346,-2.6346,-2.6279,-2.6323,-2.6308,-2.6351,-2.6344,-2.6371,-2.6376,-2.6381,-2.6381,-2.6412,-2.6427,-2.6416,-2.6411,-2.6425,-2.6441,-2.6436,-2.6444,-2.6471,-2.646,-2.6356,-2.6341,-2.6326,-2.6315,-2.6472,-2.6473,-2.6571,-2.6572,-2.6572]},{"header":{"parameterUnit":"m.s-1","parameterCategory":1,"la1":30.2991,"la2":30.254,"lo1":-89.0895,"lo2":-89.0444,"dy":0.0017,"dx":0.0017,"nx":28,"ny":28,"refTime":"2023-11-12T03:00:00:Z","depth":0,"parameterNumber":3,"parameterNumberName":"V-component_of_WINDS"},"data":[0,0,0,0,0,0,0,0,0,0,0,0,0,0,0,0,0,0,0,0,0,0,0,0,0,0,0,0,0,0,0,0,0,0,0,0,0,0,0,0,0,0,0,0,0,0,0,0,0,0,0,0,0,0,0,0,0,0,-4.9256,-4.9257,0,-4.9361,-4.9362,-4.9363,-4.934,-4.9338,-4.9336,-4.9334,-4.9436,-4.944,-4.9445,0,0,0,0,0,0,0,0,0,0,0,0,0,-4.9031,-4.9035,-4.9256,-4.9257,-4.9259,-4.936,-4.9362,-4.9363,-4.934,-4.9338,-4.9336,-4.9334,-4.9434,-4.944,-4.9445,0,0,0,0,0,0,0,0,0,0,0,0,0,-4.9131,-4.9036,-4.9256,-4.926,-4.9261,-4.936,-4.9362,-4.9364,-4.9341,-4.9338,-4.9335,-4.9332,-4.9433,-4.9439,-4.9446,-4.9546,0,0,-4.9466,-4.9469,0,0,0,0,0,0,0,0,-4.9125,-4.9139,-4.9258,-4.926,-4.9261,-4.9335,-4.932,-4.9425,-4.9342,-4.931,-4.9334,-4.9331,-4.9404,-4.9413,-4.9439,-4.9551,-4.9555,-4.9467,-4.9471,-4.9474,-4.9476,0,0,0,0,0,0,0,-4.9118,-4.9135,-4.9297,-4.9259,-4.9262,-4.9254,-4.9265,-4.9339,-4.9372,-4.9313,-4.9312,-4.9325,-4.9404,-4.9432,-4.9441,-4.9556,-4.9467,-4.9473,-4.9477,-4.948,-4.9755,-4.9758,0,0,0,0,0,0,-4.9111,-4.9129,-4.9294,-4.93,-4.9185,-4.9261,-4.9273,-4.9314,-4.9371,-4.9377,-4.9327,-4.9323,-4.9422,-4.9433,-4.9444,-4.9566,-4.9474,-4.948,-4.9484,-4.9752,-4.9756,-4.9759,0,0,0,0,0,0,-4.9106,-4.9126,-4.929,-4.9214,-4.9235,-4.9268,-4.9314,-4.9317,-4.9345,-4.9382,-4.9387,-4.935,-4.942,-4.9435,-4.9521,-4.9569,-4.9483,-4.949,-4.9748,-4.9753,-4.9758,-4.9809,0,0,0,0,0,0,-4.91,-4.9124,-4.9164,-4.9216,-4.9239,-4.9367,-4.9317,-4.9322,-4.9358,-4.9354,-4.9405,-4.941,-4.9419,-4.9511,-4.9528,-4.9577,-4.9495,-4.9744,-4.975,-4.9756,-4.9803,-4.9815,-4.9825,0,0,0,0,0,-4.9092,-4.9173,-4.9166,-4.9186,-4.929,-4.9369,-4.9382,-4.9393,-4.9362,-4.9401,-4.9425,-4.9409,-4.9561,-4.952,-4.9539,-4.959,-4.9741,-4.9748,-4.9756,-4.9798,-4.9812,-4.9824,0,0,0,0,0,0,-4.9124,-4.918,-4.9173,-4.9273,-4.9317,-4.9365,-4.9415,-4.9407,-4.9459,-4.9453,-4.9461,-4.9473,-4.9561,-4.9584,-4.9538,-4.969,-4.9646,-4.9658,-4.9672,-4.9686,-4.9697,-4.9689,-4.95,0,0,0,0,0,-4.9143,-4.9205,-4.9249,-4.9334,-4.9356,-4.9382,-4.9417,-4.9422,-4.9466,-4.9484,-4.9514,-4.9556,-4.9613,-4.9651,-4.9705,-4.9806,-4.9816,-4.985,-4.9861,-4.987,-4.988,-4.9934,-4.995,-4.9783,-4.9783,-4.9783,0,0,-4.9182,-4.922,-4.9259,-4.9341,-4.9376,-4.9438,-4.9398,-4.9465,-4.9511,-4.9493,-4.9578,-4.9601,-4.9648,-4.9742,-4.9785,-4.9764,-4.9928,-4.9879,-4.9886,-4.9891,-4.9943,-4.9959,-4.9973,-4.9788,-4.9787,-4.9787,0,0,-4.9286,-4.9322,-4.9396,-4.9432,-4.9485,-4.9502,-4.952,-4.957,-4.9585,-4.967,-4.9658,-4.9711,-4.981,-4.9844,-4.9875,-4.9992,-4.9979,-5.001,-5.0067,-5.012,-5.0133,-5.0145,-5.0186,-5.0201,-5.0019,-5.0019,-5.0019,0,-4.9328,-4.9424,-4.9435,-4.9504,-4.954,-4.9529,-4.9604,-4.9637,-4.9704,-4.9729,-4.9705,-4.9829,-4.986,-4.9962,-4.9991,-5.0016,-5.0035,-5.0004,-5.0131,-5.0142,-5.0153,-5.0193,-5.0209,-5.0023,-5.0022,-5.0022,-5.0021,0,-4.9472,-4.9539,-4.9592,-4.966,-4.9702,-4.9773,-4.9794,-4.9835,-4.9835,-4.9854,-4.994,-4.9977,-5.0039,-5.0063,-5.0063,-5.0165,-5.0151,-5.0129,-5.0085,-5.0172,-5.021,-5.0225,-5.0027,-5.0026,-5.0025,-5.0024,0,0,-4.9599,-4.9673,-4.9693,-4.9724,-4.9782,-4.9832,-4.9902,-4.9965,-5.0,-5.0046,-5.0105,-5.0189,-5.0169,-5.0204,-5.0207,-5.0254,-5.0344,-5.0226,-5.0227,-5.0247,-5.0458,-5.0475,-5.0492,-5.0336,-5.0339,-5.0342,-5.0454,0,-4.9709,-4.9836,-4.9848,-4.996,-5.0021,-5.0011,-5.0072,-5.0113,-5.0133,-5.0185,-5.0205,-5.0265,-5.0235,-5.0256,-5.0301,-5.0324,-5.0387,-5.0316,-5.0389,-5.0392,-5.0378,-5.0512,-5.053,-5.0634,-5.0469,-5.0472,-5.0473,0,-4.9854,-4.9907,-5.0027,-5.0076,-5.0102,-5.0157,-5.0216,-5.0267,-5.0313,-5.0323,-5.0363,-5.036,-5.0431,-5.0384,-5.0481,-5.0433,-5.0463,-5.0479,-5.0483,-5.049,-5.0438,-5.0523,-5.0668,-5.0684,-5.0497,-5.0495,-5.0493,0,-4.9935,-5.0036,-5.0121,-5.0147,-5.0207,-5.0246,-5.0273,-5.0316,-5.0353,-5.0403,-5.0427,-5.0484,-5.0515,-5.0559,-5.0571,-5.0536,-5.0667,-5.0622,-5.0677,-5.0677,-5.0705,-5.0703,-5.0857,-5.0725,-5.0725,-5.0724,-5.0724,0,-5.0056,-5.0129,-5.0158,-5.021,-5.0292,-5.0304,-5.0384,-5.0407,-5.0446,-5.0501,-5.0495,-5.0546,-5.056,-5.0613,-5.0623,-5.0702,-5.0715,-5.0725,-5.0727,-5.0726,-5.0725,-5.0746,-5.0739,-5.0728,-5.0727,-5.0727,-5.0726,0,-5.016,-5.0183,-5.0275,-5.0324,-5.0339,-5.0396,-5.0438,-5.0487,-5.0506,-5.0576,-5.0592,-5.0621,-5.0683,-5.07,-5.0775,-5.0781,-5.0874,-5.0868,-5.0859,-5.0859,-5.0913,-5.0908,-5.1086,-5.111,-5.0962,-5.0963,-5.0964,0,-5.0236,-5.0293,-5.035,-5.0387,-5.0416,-5.0476,-5.0515,-5.0528,-5.0568,-5.0625,-5.0667,-5.0729,-5.078,-5.088,-5.0906,-5.0962,-5.0958,-5.1017,-5.0967,-5.0964,-5.0959,-5.0956,-5.0962,-5.1027,-5.1028,-5.1029,-5.103,0,-5.0369,-5.0377,-5.0434,-5.0495,-5.0541,-5.0589,-5.0635,-5.0665,-5.0685,-5.073,-5.0795,-5.0834,-5.0911,-5.0973,-5.103,-5.1055,-5.1046,-5.1046,-5.1062,-5.1062,-5.1054,-5.1059,-5.0885,-5.1042,-5.1041,-5.104,-5.1039,-5.1039,-5.0462,-5.0512,-5.056,-5.0623,-5.0659,-5.0702,-5.0751,-5.0776,-5.0832,-5.0897,-5.0901,-5.0971,-5.1015,-5.1091,-5.1119,-5.1173,-5.1156,-5.1178,-5.1184,-5.119,-5.1195,-5.1046,-5.1184,-5.1183,-5.1183,-5.1183,-5.1183,0,-5.0594,-5.0625,-5.0683,-5.0748,-5.0797,-5.0787,-5.0836,-5.0878,-5.0941,-5.0983,-5.1034,-5.1108,-5.1168,-5.1199,-5.1258,-5.1295,-5.1292,-5.131,-5.1307,-5.1313,-5.1207,-5.1188,-5.1311,-5.1311,-5.1311,-5.1311,-5.1311,-5.1311,-5.0669,-5.0753,-5.0767,-5.0868,-5.0898,-5.0969,-5.0998,-5.1037,-5.1071,-5.1156,-5.1206,-5.1227,-5.1264,-5.1326,-5.1379,-5.1387,-5.1408,-5.1429,-5.1434,-5.1334,-5.1321,-5.1308,-5.129,-5.1433,-5.1433,-5.1535,-5.1536,-5.1537]}]]